Probability
0 0 0 0 0 0 0 0 0 0 0 0 0 0 0 0 0 0 0 0 0 0 0 0 0 0 0 0 0 0 0 0 0 0 0 0 0 0 0 0 0 0 0 0
0 0 0 0 0 0 0 0 0 0 0 0 0 0 0 0 0 0 0 0 0 0 0 0 0 0 0 0 0 0 0 0 0 0 0 0 0 0 0 0 0 0 0 0
0 0 0 0 0 0 0 0 0 0 0 0 0 0 0 0 0 0 0 0 0 0 0 0 0 0 0 0 0 0 0 0 0 0 0 0 0 0 0 0 0 0 0 0
0 0 0 0 0 0 0 0 0 0 0 0 0 0 0 0 0 0 0 0 0 0 0 0 0 0 0 0 0 0 0 0 0 0 0 0 0 0 0 0 0 0 0 0
0 0 0 0 0 0 0 0 0 0 0 0 0 0 0 0 0 0 0 0 0 3 0 0 0 0 0 0 0 0 0 0 0 0 0 0 0 0 0 0 0 0 0 0
0 0 0 0 0 0 0 0 0 0 0 0 0 0 0 0 0 0 0 0 0 0 3 0 0 0 0 0 0 0 0 0 0 0 0 0 0 0 0 0 0 0 0 0
0 0 0 0 0 0 0 0 0 0 0 0 0 0 0 0 0 0 0 0 0 0 0 0 0 0 0 0 0 0 0 0 0 0 0 0 0 0 0 0 0 0 0 0
0 0 0 0 0 0 0 0 0 0 0 0 0 0 0 0 0 0 0 0 0 0 0 0 0 0 0 0 0 0 0 0 0 0 0 0 0 0 0 0 0 0 0 0
0 0 0 0 0 0 0 0 0 0 0 0 0 0 0 0 0 0 0 0 0 0 0 0 0 0 0 0 0 0 0 0 0 0 0 0 0 0 0 0 0 0 0 0
0 0 0 0 0 0 0 0 0 0 0 0 0 0 0 0 0 0 0 0 0 0 0 0 0 0 0 0 0 0 0 0 0 0 0 0 0 0 0 0 0 0 0 0
0 0 0 0 0 0 0 0 0 0 0 0 0 0 0 0 0 0 0 0 0 0 0 0 0 0 0 0 0 0 0 0 0 0 0 0 0 0 0 0 0 0 0 0
0 0 0 0 0 0 0 0 0 0 0 0 0 0 0 0 0 0 0 0 0 0 0 0 0 0 0 0 0 0 0 0 0 0 0 0 0 0 0 0 0 0 0 0
0 0 0 0 0 0 0 0 0 0 0 0 0 0 0 0 0 0 0 0 0 0 0 0 0 0 0 0 0 0 0 0 0 0 0 0 0 0 0 0 0 0 0 0
0 0 0 0 0 0 0 0 0 0 0 0 0 0 0 0 0 0 0 0 0 0 0 0 0 0 0 0 0 0 0 0 0 0 0 0 0 0 0 0 0 0 0 0
0 0 0 0 0 0 0 0 0 0 0 0 0 0 0 0 0 0 0 0 0 0 0 0 0 0 0 0 0 0 0 0 0 0 0 0 0 0 0 0 0 0 0 0
0 0 0 0 0 0 0 0 0 0 0 0 0 0 0 0 0 0 0 0 0 0 0 0 0 0 0 0 0 0 0 0 0 0 0 0 0 0 0 0 0 0 0 0
0 0 0 0 0 0 0 0 0 0 0 0 0 0 0 0 0 0 0 0 0 0 0 0 0 0 0 0 0 0 0 0 0 0 0 0 0 0 0 0 0 0 0 0
0 0 0 0 0 0 0 0 0 0 0 0 0 0 0 0 0 0 0 0 0 0 0 0 0 0 0 0 0 0 0 0 0 0 0 0 0 0 0 0 0 0 0 0
0 0 0 0 0 0 0 0 0 0 0 0 0 0 0 0 0 0 0 0 0 0 0 0 0 0 0 0 0 0 0 0 0 0 0 0 0 0 0 0 0 0 0 0
0 0 0 0 0 0 0 0 0 0 0 0 0 0 0 0 0 0 0 0 0 0 0 0 0 0 0 0 0 0 0 0 0 0 0 0 0 0 0 0 0 0 0 0
0 0 0 0 0 0 0 0 0 0 0 0 0 0 0 0 0 0 0 0 0 0 0 0 0 0 0 0 0 0 0 0 0 0 0 0 0 0 0 0 0 0 0 0
0 0 0 0 0 0 0 0 0 0 0 0 0 0 0 0 0 0 0 0 0 0 0 0 0 0 0 0 0 0 0 0 0 0 0 0 0 0 0 0 0 0 0 0
0 0 0 0 0 0 0 0 0 0 0 0 0 0 0 0 0 0 0 0 0 0 0 0 0 0 0 0 0 0 0 0 0 0 0 0 0 0 0 0 0 0 0 0
0 0 0 0 0 0 0 0 0 0 0 0 0 0 0 0 0 0 0 0 0 0 0 0 0 0 0 0 0 0 0 0 0 0 0 0 0 0 0 0 0 0 0 0
0 0 0 0 0 0 0 0 0 0 0 0 0 0 0 0 0 0 0 0 0 0 0 0 0 0 0 0 0 0 0 0 0 0 0 0 0 0 0 0 0 0 0 0
0 0 0 0 0 0 0 0 0 0 0 0 0 0 0 0 0 0 0 0 0 0 0 0 0 0 0 0 0 0 0 0 0 0 0 0 0 0 0 0 0 0 0 0
0 0 0 0 0 0 0 0 0 0 0 0 0 0 0 0 0 0 0 0 0 0 0 0 0 0 0 0 0 0 0 0 0 0 0 0 0 0 0 0 0 0 0 0
Height
5856 5855 5853 5853 5852 5851 5850 5850 5850 5850 5849 5849 5849 5849 5848 5848 5847 5847 5847 5846 5846 5846 5845 5845 5844 5843 5843 5841 5840 5839 5837 5835 5833 5830 5828 5825 5822 5819 5816 5813 5809 5806 5802 5798
5852 5850 5849 5848 5848 5847 5846 5845 5845 5844 5844 5844 5844 5844 5844 5843 5843 5843 5842 5842 5842 5841 5840 5840 5839 5838 5837 5836 5835 5833 5831 5828 5826 5823 5821 5818 5814 5811 5808 5804 5801 5798 5794 5790
5847 5846 5844 5844 5844 5842 5841 5840 5840 5840 5840 5839 5839 5838 5839 5839 5839 5839 5838 5838 5837 5837 5836 5835 5833 5832 5831 5829 5828 5826 5824 5821 5819 5816 5813 5810 5806 5803 5800 5796 5792 5789 5785 5781
5842 5842 5841 5842 5839 5837 5835 5835 5835 5834 5834 5834 5834 5833 5834 5834 5835 5834 5834 5833 5832 5831 5830 5829 5827 5826 5824 5822 5820 5818 5815 5813 5810 5808 5804 5801 5798 5794 5791 5787 5783 5779 5775 5771
5837 5836 5835 5835 5834 5833 5831 5831 5830 5829 5829 5829 5829 5829 5829 5829 5829 5829 5828 5827 5826 5825 5824 5822 5820 5818 5817 5815 5812 5809 5807 5804 5801 5798 5795 5792 5788 5785 5781 5777 5773 5769 5765 5760
5831 5829 5829 5831 5829 5828 5828 5827 5826 5825 5825 5824 5824 5824 5824 5823 5822 5821 5821 5820 5819 5817 5816 5815 5813 5811 5809 5806 5804 5801 5798 5795 5792 5788 5785 5782 5778 5774 5770 5767 5763 5758 5754 5749
5823 5822 5823 5824 5823 5822 5823 5823 5821 5820 5819 5819 5817 5817 5818 5817 5815 5814 5814 5812 5810 5809 5807 5805 5803 5801 5799 5797 5794 5791 5788 5786 5782 5778 5775 5771 5767 5763 5759 5755 5751 5747 5742 5738
5816 5816 5818 5817 5816 5816 5816 5814 5814 5813 5812 5812 5811 5810 5809 5808 5807 5806 5805 5803 5801 5799 5797 5795 5793 5791 5789 5786 5783 5781 5778 5775 5771 5767 5763 5759 5755 5751 5746 5742 5738 5734 5729 5725
5810 5811 5811 5809 5809 5809 5808 5807 5807 5806 5805 5805 5804 5803 5802 5800 5799 5797 5796 5794 5792 5790 5787 5785 5783 5780 5778 5775 5771 5768 5765 5762 5758 5754 5750 5746 5742 5738 5733 5729 5724 5720 5715 5711
5803 5803 5803 5802 5801 5801 5800 5799 5799 5798 5798 5797 5796 5795 5794 5792 5791 5789 5787 5785 5782 5780 5777 5775 5772 5769 5766 5763 5759 5756 5752 5748 5744 5740 5736 5732 5727 5723 5719 5714 5709 5705 5701 5696
5795 5795 5794 5794 5794 5793 5792 5792 5791 5789 5789 5789 5788 5787 5786 5784 5782 5780 5777 5775 5772 5769 5767 5764 5760 5757 5753 5750 5747 5743 5739 5735 5731 5726 5722 5717 5713 5708 5704 5700 5694 5689 5685 5681
5789 5788 5788 5787 5786 5785 5785 5784 5783 5782 5782 5781 5780 5778 5777 5774 5772 5770 5767 5764 5761 5758 5755 5751 5748 5744 5741 5737 5733 5729 5724 5720 5715 5711 5706 5701 5697 5693 5688 5683 5678 5673 5668 5664
5782 5781 5780 5779 5779 5778 5777 5776 5775 5774 5773 5772 5770 5768 5766 5763 5761 5758 5755 5752 5749 5746 5742 5739 5735 5731 5727 5723 5719 5714 5710 5705 5700 5695 5690 5685 5680 5675 5671 5667 5661 5656 5651 5646
5774 5773 5772 5771 5770 5769 5768 5767 5766 5765 5763 5762 5760 5757 5755 5752 5749 5746 5743 5740 5737 5733 5729 5725 5721 5717 5713 5708 5704 5699 5694 5688 5683 5678 5672 5667 5662 5656 5651 5647 5643 5638 5632 5627
5766 5765 5764 5762 5761 5760 5758 5757 5756 5755 5753 5751 5749 5746 5744 5741 5738 5735 5731 5727 5724 5720 5715 5711 5707 5702 5697 5692 5687 5682 5676 5671 5665 5659 5653 5647 5641 5636 5630 5625 5620 5615 5611 5607
5757 5756 5755 5754 5752 5751 5750 5748 5746 5745 5742 5740 5738 5735 5733 5730 5726 5722 5718 5714 5710 5706 5701 5696 5691 5686 5681 5675 5670 5664 5658 5652 5645 5639 5633 5626 5620 5613 5607 5602 5596 5592 5588 5584
5748 5747 5746 5745 5744 5743 5742 5740 5738 5735 5732 5729 5727 5724 5720 5717 5713 5709 5705 5700 5696 5691 5686 5680 5675 5669 5663 5657 5651 5645 5638 5631 5624 5617 5610 5603 5596 5590 5583 5578 5573 5569 5565 5562
5739 5739 5738 5737 5736 5735 5733 5730 5728 5725 5722 5719 5716 5712 5708 5704 5700 5696 5691 5686 5681 5676 5670 5664 5658 5652 5645 5638 5632 5625 5618 5611 5603 5596 5589 5582 5575 5568 5561 5556 5551 5548 5545 5543
5731 5730 5729 5728 5727 5725 5722 5720 5717 5714 5711 5707 5704 5700 5695 5691 5686 5682 5677 5671 5666 5660 5654 5648 5641 5634 5627 5620 5613 5606 5598 5591 5584 5577 5570 5563 5556 5549 5543 5538 5534 5531 5529 5527
5722 5721 5720 5718 5716 5714 5711 5709 5706 5702 5699 5695 5691 5687 5682 5678 5673 5667 5662 5656 5650 5644 5638 5631 5625 5618 5610 5603 5596 5589 5581 5574 5567 5560 5553 5547 5540 5534 5529 5524 5520 5518 5516 5515
5713 5711 5709 5707 5705 5702 5700 5696 5693 5689 5686 5682 5677 5673 5668 5664 5658 5653 5647 5641 5635 5629 5622 5616 5609 5602 5595 5588 5581 5574 5566 5559 5552 5545 5539 5533 5527 5521 5517 5513 5510 5508 5507 5507
5702 5700 5698 5695 5693 5690 5687 5683 5680 5676 5672 5668 5663 5659 5654 5649 5643 5638 5632 5626 5620 5614 5608 5601 5595 5588 5581 5574 5567 5560 5553 5546 5539 5532 5526 5521 5516 5511 5508 5505 5503 5501 5501 5502
5690 5688 5685 5682 5680 5677 5673 5669 5666 5662 5658 5653 5649 5644 5639 5634 5629 5624 5618 5612 5606 5600 5594 5588 5582 5576 5569 5563 5556 5549 5542 5535 5529 5522 5517 5513 5509 5505 5502 5500 5498 5497 5497 5498
5678 5675 5672 5669 5666 5663 5659 5655 5651 5647 5643 5639 5635 5630 5625 5620 5615 5610 5605 5600 5594 5589 5583 5577 5571 5565 5559 5553 5546 5540 5534 5527 5521 5516 5511 5507 5504 5501 5499 5497 5496 5495 5495 5496
5665 5662 5659 5656 5653 5649 5645 5642 5638 5633 5629 5626 5621 5617 5612 5607 5603 5598 5594 5589 5584 5579 5573 5568 5562 5557 5551 5545 5539 5533 5527 5521 5516 5511 5507 5504 5501 5499 5497 5495 5494 5494 5494 5495
5652 5649 5646 5642 5639 5636 5632 5628 5624 5620 5617 5613 5609 5604 5600 5596 5592 5588 5584 5579 5575 5570 5565 5560 5554 5549 5543 5538 5532 5527 5522 5517 5513 5508 5505 5502 5499 5497 5495 5494 5494 5493 5494 5494
5639 5635 5632 5629 5625 5622 5618 5615 5611 5608 5604 5601 5597 5593 5590 5586 5583 5579 5575 5571 5566 5562 5557 5552 5547 5542 5537 5532 5527 5522 5518 5514 5510 5506 5503 5501 5499 5497 5495 5494 5494 5494 5494 5494
Wind_Speed
17 15 14 14 13 13 15 17 18 16 15 15 16 17 15 14 14 14 13 12 11 11 12 12 13 14 15 16 17 19 20 21 22 23 24 25 25 26 27 27 29 30 31 32
16 15 16 16 15 15 16 18 19 18 16 15 16 17 15 15 15 16 15 14 13 14 14 15 16 17 17 18 19 21 22 24 25 26 27 27 28 29 29 30 31 32 33 35
17 16 17 15 14 16 18 18 18 18 17 17 18 16 15 15 16 16 16 15 14 14 15 16 18 20 21 21 22 23 25 26 28 29 29 30 30 31 32 33 34 35 36 37
19 18 18 16 15 17 18 18 20 20 20 20 19 17 16 16 17 18 17 16 16 17 19 20 21 22 23 24 25 26 28 29 30 31 31 32 32 33 34 35 36 37 38 39
21 20 20 19 18 18 19 20 20 19 20 20 21 20 19 17 17 18 19 19 20 22 23 23 24 24 25 27 28 29 31 32 32 33 33 34 35 35 36 37 39 39 40 41
23 23 22 20 19 20 21 21 21 21 21 21 22 22 22 21 19 20 22 24 25 25 26 26 27 27 28 29 31 32 33 34 34 35 36 37 37 38 39 40 41 42 42 43
24 24 22 20 19 19 21 22 22 22 21 22 22 22 23 24 24 24 26 27 27 28 29 30 31 31 32 32 33 34 35 35 36 38 38 39 40 42 43 43 44 44 44 45
25 23 22 21 21 20 22 21 22 21 21 20 21 23 24 24 25 26 28 29 30 31 32 33 34 35 35 36 36 37 37 38 39 40 41 42 43 44 45 46 47 47 47 47
25 24 22 22 23 23 24 24 23 21 19 19 21 22 23 25 27 29 30 31 32 33 34 35 36 37 37 38 38 39 40 41 42 43 44 45 46 47 48 49 49 50 50 50
28 27 26 25 25 27 27 25 23 22 22 22 23 23 24 26 28 30 31 33 34 35 36 37 37 38 39 40 41 42 43 44 46 47 48 49 50 50 51 51 52 52 52 52
29 28 27 27 26 26 26 25 24 24 25 26 27 27 27 28 30 31 32 34 35 36 37 38 39 40 41 43 44 45 46 47 48 50 51 52 52 53 53 54 54 54 54 53
30 30 29 28 28 28 28 27 27 27 28 29 29 30 31 31 32 33 34 35 36 38 39 40 41 42 43 44 46 47 48 50 51 52 53 54 55 55 55 56 56 56 56 56
29 29 30 29 30 30 30 30 30 30 30 31 31 32 33 34 35 36 36 37 39 40 41 42 43 44 45 46 47 48 50 51 53 54 55 56 57 58 58 58 58 59 59 59
28 29 30 30 31 31 31 31 31 32 32 32 33 34 35 36 37 38 39 40 41 42 43 44 45 46 47 48 49 51 52 54 55 56 58 59 60 61 62 62 62 62 62 61
27 28 29 30 30 31 32 32 33 33 34 35 36 37 37 38 39 40 41 43 43 44 45 46 47 49 50 51 52 54 55 57 58 59 61 62 63 64 65 65 66 65 64 63
25 27 29 29 29 30 31 32 33 35 36 37 38 39 40 41 42 43 44 45 46 47 48 49 50 52 53 54 56 57 59 60 61 63 64 65 66 66 67 67 66 66 64 61
25 26 26 26 28 29 31 32 33 35 37 39 40 41 42 43 45 45 47 48 49 50 51 52 53 55 56 58 59 60 61 63 64 65 65 66 66 65 65 64 63 61 58 55
27 27 27 28 29 30 32 33 35 37 39 41 42 44 45 46 47 48 49 50 51 52 54 55 56 58 59 60 61 62 62 62 63 63 62 62 61 60 59 57 54 51 48 45
26 26 28 29 31 33 35 37 39 40 42 43 44 46 47 48 49 50 51 53 54 55 55 56 57 58 59 59 59 59 59 59 58 57 56 55 53 52 50 47 45 42 39 36
29 31 32 34 35 37 38 40 42 43 44 45 46 47 49 50 51 52 53 54 55 55 56 56 57 57 57 56 56 55 55 54 52 51 50 49 47 44 41 39 37 33 30 27
33 34 35 37 39 40 42 43 44 45 46 47 49 50 51 52 52 53 53 54 54 54 54 54 53 53 52 52 51 50 49 48 48 47 46 43 40 37 33 30 28 25 21 20
36 38 40 42 43 44 45 46 47 48 49 50 51 51 51 52 52 52 52 52 51 51 50 49 49 48 47 46 46 45 45 44 43 42 38 35 31 28 25 22 19 17 15 15
41 43 45 46 47 47 48 49 49 50 50 50 50 50 50 50 49 49 48 47 46 46 45 44 43 42 42 42 42 41 39 38 36 34 30 27 23 20 17 16 13 11 10 10
45 46 48 48 49 49 50 50 50 50 49 49 48 48 47 46 45 44 43 42 42 41 41 39 39 39 39 38 37 35 34 32 29 26 23 20 17 15 14 12 8 7 7 7
47 48 49 49 49 49 49 48 48 48 47 46 45 44 43 41 40 40 39 38 37 37 36 36 36 36 35 34 33 31 29 26 23 21 18 16 14 12 11 8 5 5 4 4
47 47 47 47 47 47 47 46 45 44 43 41 40 39 37 36 36 36 35 34 33 33 33 33 34 33 32 31 29 27 25 22 20 18 15 13 12 10 8 5 4 3 2 2
45 45 45 45 45 44 43 42 41 40 38 37 35 34 34 33 32 31 30 30 31 31 31 31 31 30 29 27 26 23 20 18 17 15 12 11 10 8 6 4 4 3 2 1
Wind_Direction
297 294 282 279 277 269 263 259 254 252 260 271 281 290 297 300 304 309 313 313 310 306 301 297 295 295 295 295 295 294 294 294 294 295 297 299 300 301 302 303 304 306 307 308
292 290 282 280 276 264 263 263 252 251 260 271 279 283 287 294 301 304 307 307 305 302 297 295 294 293 293 293 292 292 292 291 292 293 295 296 297 298 300 301 302 304 306 307
285 284 284 283 280 271 263 264 265 262 266 273 273 273 277 286 293 296 297 297 296 295 294 292 293 294 293 293 293 292 292 292 292 293 294 295 296 298 299 301 303 305 306 306
285 282 282 277 269 271 271 273 274 271 270 274 275 267 273 280 285 290 291 290 291 294 294 293 294 294 294 294 294 293 293 293 292 292 293 294 295 297 299 300 302 303 305 306
285 284 281 276 271 268 272 274 277 273 271 273 277 272 273 276 279 285 288 290 291 292 292 290 291 292 293 294 294 293 292 293 293 292 294 294 294 296 298 299 301 302 304 305
282 283 282 280 276 273 274 279 280 276 271 276 283 277 271 275 281 287 289 291 293 292 291 290 291 291 291 291 292 291 291 292 293 293 294 294 295 295 297 298 300 301 302 304
280 280 281 282 280 278 282 283 282 282 279 281 285 279 277 280 285 290 290 291 292 292 292 292 292 292 291 291 290 290 290 290 291 292 292 293 294 295 295 297 298 300 302 302
277 277 279 284 281 284 292 288 287 287 283 285 287 285 284 284 288 290 291 292 292 292 291 291 291 290 290 290 290 290 290 290 291 291 291 292 293 295 295 296 297 299 300 301
283 281 286 286 286 288 294 292 291 292 290 295 296 294 291 290 291 291 290 290 290 290 289 289 289 289 289 289 289 290 290 290 291 291 292 292 293 293 294 295 296 297 298 299
283 285 287 292 293 291 294 295 295 297 297 299 297 297 295 294 292 290 289 289 289 288 288 288 289 289 289 289 289 289 289 289 290 291 291 291 292 292 293 294 295 295 296 296
282 285 287 291 292 291 293 296 297 296 297 298 297 296 296 295 293 291 290 289 289 288 288 288 288 288 288 288 288 289 289 289 289 289 290 290 290 291 292 293 293 293 294 294
279 282 284 287 289 289 291 292 295 296 295 295 296 297 297 296 294 292 291 291 290 290 290 290 290 289 289 290 289 289 290 290 289 289 290 290 290 290 291 291 291 291 292 291
278 280 282 285 287 288 289 291 293 294 294 296 297 297 296 296 295 295 294 293 293 292 292 292 292 291 291 291 290 290 289 289 289 289 289 290 290 290 290 290 290 290 290 290
275 278 279 281 284 286 288 291 294 295 295 296 297 296 296 296 296 296 295 295 295 294 294 294 293 292 292 291 291 291 290 290 290 290 290 290 290 290 289 289 288 288 288 287
272 274 277 280 284 287 290 293 296 297 297 296 296 296 296 297 297 297 297 297 297 296 296 296 295 295 294 294 293 293 292 292 292 291 291 291 290 290 289 289 288 287 286 285
272 275 279 283 287 290 292 293 295 296 296 295 296 296 297 297 297 298 298 298 298 298 297 297 297 296 296 295 295 295 295 294 294 293 292 292 291 290 289 288 287 286 285 284
274 279 283 286 289 291 291 292 293 293 294 295 296 297 298 299 299 299 299 299 299 299 299 299 299 298 298 298 297 297 296 296 295 295 294 293 293 292 291 290 288 287 285 283
277 280 283 286 287 289 290 291 291 292 294 295 297 298 298 299 299 300 300 300 300 301 301 301 300 300 300 300 299 299 298 298 298 297 297 296 295 294 293 292 291 289 286 282
286 286 287 287 288 290 290 291 292 293 294 295 297 298 298 299 300 301 301 301 302 302 302 302 302 302 301 301 301 301 301 300 300 300 299 299 299 298 296 294 292 290 286 280
290 290 288 288 289 290 291 292 293 294 295 296 297 298 299 300 301 301 301 302 302 302 303 303 303 303 303 303 302 303 303 303 303 303 303 302 301 300 298 295 293 289 283 275
286 287 287 288 289 290 291 293 294 295 296 297 298 299 299 300 301 301 302 302 303 303 303 304 304 304 304 305 305 305 305 305 305 305 305 304 304 301 299 297 293 288 280 269
285 286 287 289 290 291 293 294 295 296 297 298 299 299 300 301 301 302 302 303 303 304 304 305 306 306 307 308 308 308 308 309 309 308 307 307 307 306 303 299 294 288 279 264
286 287 289 290 291 293 294 295 296 297 298 298 299 300 300 301 302 302 303 303 304 305 306 307 308 309 310 312 312 313 313 313 313 313 312 312 312 311 309 307 301 290 276 261
286 288 289 291 292 294 295 296 297 298 298 298 299 300 301 301 301 302 303 305 306 308 309 310 311 313 315 316 316 317 318 318 318 318 318 317 315 314 314 312 305 293 279 262
285 288 289 291 293 294 295 296 296 297 297 298 299 300 300 300 300 302 304 306 308 310 311 313 314 316 316 317 319 320 322 323 324 324 324 323 323 324 324 318 311 303 285 250
286 288 290 292 293 294 294 295 295 296 297 298 298 299 300 300 301 303 305 308 310 312 314 315 316 317 318 319 320 322 324 325 327 328 328 328 331 334 332 328 328 327 312 271
289 290 292 293 293 294 294 295 296 296 297 297 298 300 301 302 303 305 308 310 312 314 315 316 317 319 320 321 322 324 326 330 332 333 336 341 344 347 350 350 349 354 352 327